Location: �terpigny
(49.8910°N, 2.9249°E)
Time: 18:16:20
(UTC+00:00)

ATLAS 3B R/B - Pass Details

Date: 24 October 2021
Orbit: 989 x 1206 km, 63.8° (Epoch: 25 November)

Event Time Altitude Azimuth Distance (km) Brightness Sun altitude
Rises 19:33:10 0° 287° (WNW) 3,796 6.8 -28.4°
Reaches altitude 10° 19:36:16 10° 300° (WNW) 2,876 5.8 -28.9°
Maximum altitude 19:41:51 26° 356° (N) 2,000 4.3 -29.8°
Enters shadow 19:44:27 21° 27° (NNE) 2,252 4.3 -30.2°
